| time (UTC) | temp C | wind direction | speed KPH | gust KPH | rain 1hr cm | rain 24hr cm | rain mn cm | humidity % | barometer mb |
| 20260505101850 | 11 | 91 | 0.0 | 0.0 | 0.00 | 0.00 | 0.00 | 94 | 1015.7 |
| 20260505101345 | 11 | 91 | 0.0 | 0.0 | 0.00 | 0.00 | 0.00 | 93 | 1015.7 |
| 20260505100841 | 11 | 91 | 0.0 | 0.0 | 0.00 | 0.00 | 0.00 | 93 | 1015.7 |
| 20260505100338 | 11 | 91 | 0.0 | 0.0 | 0.00 | 0.00 | 0.00 | 93 | 1015.8 |
| 20260505100002 | 22 | 0 | 0.0 | 0.0 | 0.00 | 0.00 | 0.00 | 43 | 1012.6 |
| 20260505095833 | 11 | 91 | 0.0 | 0.0 | 0.00 | 0.00 | 0.00 | 93 | 1015.7 |
| 20260505095332 | 11 | 92 | 0.0 | 0.0 | 0.00 | 0.00 | 0.00 | 92 | 1015.9 |
| 20260505094827 | 11 | 91 | 0.0 | 0.0 | 0.00 | 0.00 | 0.00 | 92 | 1016.1 |
| 20260505094324 | 11 | 91 | 0.0 | 0.0 | 0.00 | 0.00 | 0.00 | 92 | 1016.3 |
| 20260505093820 | 11 | 91 | 0.0 | 0.0 | 0.00 | 0.00 | 0.00 | 91 | 1016.2 |
| 20260505093318 | 11 | 91 | 0.0 | 0.0 | 0.00 | 0.00 | 0.00 | 91 | 1016.2 |
| 20260505093003 | 22 | 0 | 0.0 | 0.0 | 0.00 | 0.00 | 0.00 | 43 | 1012.9 |
| 20260505092814 | 11 | 92 | 0.0 | 0.0 | 0.00 | 0.00 | 0.00 | 90 | 1016.2 |
| 20260505092313 | 11 | 92 | 0.0 | 0.0 | 0.00 | 0.00 | 0.00 | 90 | 1016.3 |
| 20260505091810 | 11 | 95 | 0.0 | 1.6 | 0.00 | 0.00 | 0.00 | 90 | 1016.2 |
| 20260505091308 | 11 | 92 | 0.0 | 0.0 | 0.00 | 0.00 | 0.00 | 90 | 1016.2 |
| 20260505090806 | 11 | 86 | 0.0 | 0.0 | 0.00 | 0.00 | 0.00 | 89 | 1016.1 |
| 20260505090303 | 11 | 88 | 0.0 | 1.6 | 0.00 | 0.00 | 0.00 | 89 | 1016.1 |
| 20260505090003 | 22 | 0 | 0.0 | 0.0 | 0.00 | 0.00 | 0.00 | 43 | 1012.7 |
| 20260505085800 | 12 | 61 | 0.0 | 1.6 | 0.00 | 0.00 | 0.00 | 89 | 1016.2 |
| 20260505085258 | 12 | 61 | 0.0 | 1.6 | 0.00 | 0.00 | 0.00 | 89 | 1016.1 |
| 20260505084756 | 12 | 81 | 0.0 | 1.6 | 0.00 | 0.00 | 0.00 | 88 | 1016.1 |
| 20260505084255 | 12 | 91 | 0.0 | 0.0 | 0.00 | 0.00 | 0.00 | 88 | 1016.3 |
| 20260505083751 | 12 | 59 | 1.6 | 1.6 | 0.00 | 0.00 | 0.00 | 88 | 1016.0 |
| 20260505083248 | 12 | 91 | 0.0 | 0.0 | 0.00 | 0.00 | 0.00 | 88 | 1015.8 |
| 20260505083003 | 22 | 0 | 0.0 | 0.0 | 0.00 | 0.00 | 0.00 | 43 | 1012.6 |
| 20260505082744 | 12 | 93 | 0.0 | 1.6 | 0.00 | 0.00 | 0.00 | 88 | 1015.9 |
| 20260505082241 | 12 | 92 | 0.0 | 0.0 | 0.00 | 0.00 | 0.00 | 87 | 1016.1 |
| 20260505081737 | 12 | 92 | 0.0 | 0.0 | 0.00 | 0.00 | 0.00 | 87 | 1016.1 |
| 20260505081235 | 12 | 86 | 0.0 | 0.0 | 0.00 | 0.00 | 0.00 | 87 | 1016.0 |
| 20260505080732 | 12 | 86 | 0.0 | 0.0 | 0.00 | 0.00 | 0.00 | 86 | 1015.9 |
| 20260505080227 | 12 | 89 | 0.0 | 0.0 | 0.00 | 0.00 | 0.00 | 86 | 1015.9 |
| 20260505080003 | 22 | 0 | 0.0 | 0.0 | 0.00 | 0.00 | 0.00 | 43 | 1012.6 |
| 20260505075723 | 12 | 89 | 0.0 | 0.0 | 0.00 | 0.00 | 0.00 | 86 | 1015.8 |
| 20260505075220 | 12 | 85 | 0.0 | 0.0 | 0.00 | 0.00 | 0.00 | 85 | 1015.9 |
| 20260505074718 | 12 | 85 | 0.0 | 0.0 | 0.00 | 0.00 | 0.00 | 85 | 1015.7 |
| 20260505074214 | 12 | 87 | 0.0 | 0.0 | 0.00 | 0.00 | 0.00 | 84 | 1015.8 |
| 20260505073712 | 12 | 81 | 0.0 | 0.0 | 0.00 | 0.00 | 0.00 | 83 | 1015.6 |
| 20260505073210 | 13 | 81 | 0.0 | 0.0 | 0.00 | 0.00 | 0.00 | 83 | 1015.7 |
| 20260505073003 | 22 | 0 | 0.0 | 0.0 | 0.00 | 0.00 | 0.00 | 43 | 1012.4 |
| 20260505072705 | 13 | 81 | 0.0 | 0.0 | 0.00 | 0.00 | 0.00 | 82 | 1015.5 |
| 20260505072202 | 13 | 80 | 0.0 | 0.0 | 0.00 | 0.00 | 0.00 | 81 | 1015.8 |
| 20260505071657 | 13 | 79 | 0.0 | 0.0 | 0.00 | 0.00 | 0.00 | 81 | 1015.8 |
| 20260505071155 | 13 | 73 | 0.0 | 0.0 | 0.00 | 0.00 | 0.00 | 81 | 1015.6 |
| 20260505070653 | 13 | 89 | 0.0 | 0.0 | 0.00 | 0.00 | 0.00 | 80 | 1015.9 |
| 20260505070149 | 13 | 87 | 0.0 | 0.0 | 0.00 | 0.00 | 0.00 | 81 | 1015.7 |
| 20260505070003 | 22 | 0 | 0.0 | 0.0 | 0.00 | 0.00 | 0.00 | 43 | 1012.5 |
| 20260505065645 | 13 | 87 | 0.0 | 0.0 | 0.00 | 0.00 | 0.00 | 80 | 1015.7 |
| 20260505065142 | 13 | 86 | 0.0 | 0.0 | 0.00 | 0.00 | 0.00 | 80 | 1015.8 |
| 20260505064638 | 13 | 86 | 0.0 | 0.0 | 0.00 | 0.00 | 0.00 | 79 | 1015.8 |
| 20260505064136 | 13 | 86 | 0.0 | 1.6 | 0.00 | 0.00 | 0.00 | 78 | 1015.9 |
| 20260505063634 | 14 | 86 | 0.0 | 0.0 | 0.00 | 0.00 | 0.00 | 77 | 1015.8 |
| 20260505063130 | 14 | 86 | 0.0 | 1.6 | 0.00 | 0.00 | 0.00 | 77 | 1015.9 |
| 20260505063003 | 22 | 0 | 0.0 | 0.0 | 0.00 | 0.00 | 0.00 | 43 | 1012.7 |
| 20260505062626 | 14 | 86 | 0.0 | 0.0 | 0.00 | 0.00 | 0.00 | 76 | 1016.0 |
| 20260505062124 | 14 | 79 | 0.0 | 1.6 | 0.00 | 0.00 | 0.00 | 76 | 1016.2 |
| 20260505061621 | 14 | 87 | 0.0 | 0.0 | 0.00 | 0.00 | 0.00 | 75 | 1016.1 |
| 20260505061119 | 15 | 87 | 0.0 | 1.6 | 0.00 | 0.00 | 0.00 | 74 | 1016.2 |
| 20260505060616 | 14 | 81 | 0.0 | 1.6 | 0.00 | 0.00 | 0.00 | 74 | 1016.4 |
| 20260505060113 | 14 | 91 | 0.0 | 1.6 | 0.00 | 0.00 | 0.00 | 74 | 1016.2 |
| 20260505060003 | 22 | 0 | 0.0 | 0.0 | 0.00 | 0.00 | 0.00 | 43 | 1013.0 |
| 20260505055608 | 14 | 83 | 0.0 | 0.0 | 0.00 | 0.00 | 0.00 | 74 | 1016.2 |
| 20260505055105 | 15 | 90 | 0.0 | 0.0 | 0.00 | 0.00 | 0.00 | 72 | 1016.2 |
| 20260505054602 | 15 | 89 | 0.0 | 0.0 | 0.00 | 0.00 | 0.00 | 72 | 1016.2 |
| 20260505054100 | 15 | 89 | 0.0 | 0.0 | 0.00 | 0.00 | 0.00 | 71 | 1016.2 |
| 20260505053557 | 15 | 89 | 0.0 | 0.0 | 0.00 | 0.00 | 0.00 | 71 | 1016.3 |
| 20260505053054 | 15 | 89 | 0.0 | 1.6 | 0.00 | 0.00 | 0.00 | 70 | 1016.3 |
| 20260505053003 | 22 | 0 | 0.0 | 0.0 | 0.00 | 0.00 | 0.00 | 43 | 1013.1 |
| 20260505052550 | 15 | 88 | 0.0 | 1.6 | 0.00 | 0.00 | 0.00 | 69 | 1016.1 |
| 20260505052048 | 15 | 99 | 0.0 | 1.6 | 0.00 | 0.00 | 0.00 | 69 | 1016.4 |
| 20260505051545 | 15 | 89 | 0.0 | 1.6 | 0.00 | 0.00 | 0.00 | 68 | 1016.4 |
| 20260505051043 | 15 | 93 | 1.6 | 1.6 | 0.00 | 0.00 | 0.00 | 68 | 1016.3 |
| 20260505050541 | 15 | 85 | 0.0 | 0.0 | 0.00 | 0.00 | 0.00 | 67 | 1016.4 |
| 20260505041509 | 12 | 91 | 0.0 | 1.6 | 0.00 | 0.00 | 0.00 | 73 | 1016.1 |
| 20260505041006 | 12 | 74 | 0.0 | 1.6 | 0.00 | 0.00 | 0.00 | 72 | 1016.0 |
| 20260505040503 | 12 | 81 | 0.0 | 1.6 | 0.00 | 0.00 | 0.00 | 72 | 1016.2 |
| 20260505040005 | 22 | 0 | 0.0 | 0.0 | 0.00 | 0.00 | 0.00 | 43 | 1012.9 |
| 20260505040000 | 13 | 81 | 0.0 | 0.0 | 0.00 | 0.00 | 0.00 | 74 | 1016.3 |
| 20260505035456 | 13 | 81 | 0.0 | 0.0 | 0.00 | 0.00 | 0.00 | 68 | 1016.1 |
| 20260505034953 | 13 | 81 | 0.0 | 0.0 | 0.00 | 0.00 | 0.00 | 68 | 1016.2 |
| 20260505034449 | 13 | 81 | 0.0 | 0.0 | 0.00 | 0.00 | 0.00 | 70 | 1016.3 |
| 20260505033947 | 13 | 81 | 0.0 | 0.0 | 0.00 | 0.00 | 0.00 | 69 | 1016.2 |
| 20260505033443 | 13 | 82 | 0.0 | 0.0 | 0.00 | 0.00 | 0.00 | 67 | 1016.1 |
| 20260505033003 | 22 | 0 | 0.0 | 0.0 | 0.00 | 0.00 | 0.00 | 43 | 1013.1 |
| 20260505032942 | 13 | 89 | 0.0 | 0.0 | 0.00 | 0.00 | 0.00 | 70 | 1016.3 |
| 20260505032439 | 13 | 59 | 0.0 | 1.6 | 0.00 | 0.00 | 0.00 | 65 | 1016.2 |
| 20260505031935 | 13 | 28 | 1.6 | 1.6 | 0.00 | 0.00 | 0.00 | 66 | 1016.4 |
| 20260505031432 | 13 | 37 | 1.6 | 1.6 | 0.00 | 0.00 | 0.00 | 66 | 1016.2 |
| 20260505030929 | 13 | 94 | 0.0 | 1.6 | 0.00 | 0.00 | 0.00 | 67 | 1016.2 |
| 20260505030425 | 13 | 91 | 0.0 | 1.6 | 0.00 | 0.00 | 0.00 | 66 | 1016.3 |
| 20260505030003 | 22 | 0 | 0.0 | 0.0 | 0.00 | 0.00 | 0.00 | 43 | 1013.1 |
| 20260505025920 | 13 | 98 | 0.0 | 3.2 | 0.00 | 0.00 | 0.00 | 67 | 1016.1 |
| 20260505025418 | 13 | 88 | 0.0 | 1.6 | 0.00 | 0.00 | 0.00 | 67 | 1016.4 |
| 20260505024917 | 13 | 127 | 1.6 | 1.6 | 0.00 | 0.00 | 0.00 | 66 | 1016.4 |
| 20260505024414 | 13 | 105 | 1.6 | 1.6 | 0.00 | 0.00 | 0.00 | 66 | 1016.3 |
| 20260505023911 | 13 | 95 | 0.0 | 1.6 | 0.00 | 0.00 | 0.00 | 67 | 1016.3 |
| 20260505023408 | 13 | 13 | 0.0 | 1.6 | 0.00 | 0.00 | 0.00 | 66 | 1016.3 |
| 20260505023003 | 22 | 0 | 0.0 | 0.0 | 0.00 | 0.00 | 0.00 | 43 | 1013.0 |
| 20260505022905 | 14 | 155 | 1.6 | 1.6 | 0.00 | 0.00 | 0.00 | 68 | 1016.0 |
| 20260505022402 | 14 | 71 | 0.0 | 1.6 | 0.00 | 0.00 | 0.00 | 68 | 1016.2 |
| 20260505021859 | 14 | 82 | 1.6 | 1.6 | 0.00 | 0.00 | 0.00 | 70 | 1016.1 |
| 20260505021355 | 14 | 62 | 1.6 | 1.6 | 0.00 | 0.00 | 0.00 | 71 | 1016.2 |
| 20260505020851 | 14 | 59 | 0.0 | 1.6 | 0.00 | 0.00 | 0.00 | 70 | 1015.9 |
| 20260505020347 | 14 | 67 | 1.6 | 1.6 | 0.00 | 0.00 | 0.00 | 69 | 1016.0 |
| 20260505020004 | 22 | 0 | 0.0 | 0.0 | 0.00 | 0.00 | 0.00 | 43 | 1012.7 |
| 20260505015844 | 15 | 67 | 0.0 | 1.6 | 0.00 | 0.00 | 0.00 | 68 | 1015.9 |
| 20260505015341 | 15 | 68 | 0.0 | 1.6 | 0.00 | 0.00 | 0.00 | 67 | 1015.8 |
| 20260505014839 | 15 | 48 | 1.6 | 1.6 | 0.00 | 0.00 | 0.00 | 67 | 1015.8 |
| 20260505014335 | 15 | 62 | 0.0 | 1.6 | 0.00 | 0.00 | 0.00 | 67 | 1015.8 |
| 20260505013832 | 15 | 61 | 0.0 | 1.6 | 0.00 | 0.00 | 0.00 | 65 | 1015.5 |
| 20260505013329 | 15 | 51 | 1.6 | 1.6 | 0.00 | 0.00 | 0.00 | 65 | 1015.7 |
| 20260505013003 | 22 | 0 | 0.0 | 0.0 | 0.00 | 0.00 | 0.00 | 43 | 1012.4 |
| 20260505012828 | 15 | 83 | 0.0 | 0.0 | 0.00 | 0.00 | 0.00 | 65 | 1015.4 |
| 20260505012325 | 15 | 85 | 0.0 | 1.6 | 0.00 | 0.00 | 0.00 | 64 | 1015.6 |
| 20260505011820 | 15 | 110 | 1.6 | 1.6 | 0.00 | 0.00 | 0.00 | 62 | 1015.6 |
| 20260505011318 | 16 | 68 | 0.0 | 1.6 | 0.00 | 0.00 | 0.00 | 61 | 1015.6 |
| 20260505010814 | 16 | 99 | 1.6 | 1.6 | 0.00 | 0.00 | 0.00 | 64 | 1015.5 |
| 20260505010310 | 16 | 88 | 0.0 | 1.6 | 0.00 | 0.00 | 0.00 | 61 | 1015.4 |
| 20260505010002 | 22 | 0 | 0.0 | 0.0 | 0.00 | 0.00 | 0.00 | 43 | 1012.2 |
| 20260505005806 | 16 | 84 | 0.0 | 1.6 | 0.00 | 0.00 | 0.00 | 63 | 1015.3 |
| 20260505005304 | 16 | 92 | 0.0 | 1.6 | 0.00 | 0.00 | 0.00 | 59 | 1015.3 |
| 20260505004801 | 17 | 74 | 0.0 | 1.6 | 0.00 | 0.00 | 0.00 | 62 | 1015.3 |
| 20260505004256 | 17 | 74 | 0.0 | 1.6 | 0.00 | 0.00 | 0.00 | 60 | 1015.0 |
| 20260505003754 | 18 | 81 | 0.0 | 1.6 | 0.00 | 0.00 | 0.00 | 59 | 1015.4 |
| 20260505003252 | 18 | 80 | 0.0 | 1.6 | 0.00 | 0.00 | 0.00 | 56 | 1015.0 |
| 20260505003001 | 22 | 0 | 0.0 | 0.0 | 0.00 | 0.00 | 0.00 | 43 | 1012.1 |
| 20260505002748 | 18 | 81 | 0.0 | 0.0 | 0.00 | 0.00 | 0.00 | 53 | 1015.2 |
| 20260505002245 | 19 | 81 | 0.0 | 0.0 | 0.00 | 0.00 | 0.00 | 51 | 1014.9 |
| 20260505001743 | 20 | 81 | 0.0 | 0.0 | 0.00 | 0.00 | 0.00 | 52 | 1014.9 |
| 20260505001240 | 20 | 81 | 0.0 | 0.0 | 0.00 | 0.00 | 0.00 | 51 | 1015.1 |
| 20260505000737 | 21 | 81 | 0.0 | 0.0 | 0.00 | 0.00 | 0.00 | 49 | 1015.2 |
| 20260505000235 | 21 | 81 | 0.0 | 0.0 | 0.00 | 0.00 | 0.00 | 44 | 1015.2 |
| 20260505000002 | 22 | 162 | 0.0 | 0.0 | 0.00 | 0.00 | 0.00 | 40 | 1012.1 |
| 20260504235731 | 22 | 81 | 0.0 | 0.0 | 0.00 | 0.00 | 0.00 | 43 | 1015.2 |
| 20260504235227 | 22 | 81 | 0.0 | 0.0 | 0.00 | 0.00 | 0.00 | 41 | 1015.2 |
| 20260504234725 | 23 | 81 | 0.0 | 0.0 | 0.00 | 0.00 | 0.00 | 40 | 1015.2 |
| 20260504234222 | 23 | 81 | 0.0 | 0.0 | 0.00 | 0.00 | 0.00 | 38 | 1015.3 |
| 20260504233718 | 24 | 81 | 0.0 | 0.0 | 0.00 | 0.00 | 0.00 | 38 | 1015.2 |
| 20260504233214 | 25 | 81 | 0.0 | 0.0 | 0.00 | 0.00 | 0.00 | 36 | 1015.4 |
| 20260504232711 | 25 | 75 | 0.0 | 0.0 | 0.00 | 0.00 | 0.00 | 34 | 1015.2 |
| 20260504232208 | 25 | 83 | 0.0 | 3.2 | 0.00 | 0.00 | 0.00 | 33 | 1015.2 |
| 20260504231705 | 25 | 69 | 0.0 | 3.2 | 0.00 | 0.00 | 0.00 | 33 | 1015.0 |
| 20260504231201 | 25 | 79 | 0.0 | 1.6 | 0.00 | 0.00 | 0.00 | 34 | 1014.8 |
| 20260504230657 | 25 | 89 | 0.0 | 1.6 | 0.00 | 0.00 | 0.00 | 32 | 1014.9 |
| 20260504230156 | 25 | 68 | 0.0 | 1.6 | 0.00 | 0.00 | 0.00 | 35 | 1015.1 |
| 20260504230002 | 24 | 166 | 0.0 | 0.0 | 0.00 | 0.00 | 0.00 | 32 | 1012.0 |
| 20260504225654 | 25 | 88 | 0.0 | 1.6 | 0.00 | 0.00 | 0.00 | 36 | 1015.0 |
| 20260504225150 | 24 | 84 | 0.0 | 1.6 | 0.00 | 0.00 | 0.00 | 34 | 1015.2 |
| 20260504224647 | 24 | 83 | 0.0 | 0.0 | 0.00 | 0.00 | 0.00 | 34 | 1015.1 |
| 20260504224144 | 25 | 73 | 0.0 | 1.6 | 0.00 | 0.00 | 0.00 | 34 | 1015.0 |
| 20260504223641 | 25 | 95 | 0.0 | 3.2 | 0.00 | 0.00 | 0.00 | 33 | 1014.9 |
| 20260504223137 | 26 | 125 | 3.2 | 6.4 | 0.00 | 0.00 | 0.00 | 31 | 1015.1 |
| 20260504223002 | 26 | 203 | 0.0 | 0.0 | 0.00 | 0.00 | 0.00 | 28 | 1011.8 |
| 20260504222634 | 26 | 149 | 1.6 | 3.2 | 0.00 | 0.00 | 0.00 | 33 | 1015.1 |
| 20260504222131 | 26 | 67 | 0.0 | 3.2 | 0.00 | 0.00 | 0.00 | 33 | 1014.9 |
| 20260504221628 | 26 | 104 | 1.6 | 3.2 | 0.00 | 0.00 | 0.00 | 30 | 1015.1 |
| 20260504221125 | 27 | 98 | 3.2 | 3.2 | 0.00 | 0.00 | 0.00 | 31 | 1015.1 |
| 20260504220621 | 27 | 130 | 1.6 | 3.2 | 0.00 | 0.00 | 0.00 | 31 | 1015.1 |
| 20260504220120 | 26 | 79 | 0.0 | 6.4 | 0.00 | 0.00 | 0.00 | 31 | 1015.0 |
| 20260504220002 | 26 | 186 | 0.0 | 0.0 | 0.00 | 0.00 | 0.00 | 27 | 1012.0 |
| 20260504215615 | 26 | 70 | 0.0 | 3.2 | 0.00 | 0.00 | 0.00 | 33 | 1014.8 |
| 20260504215113 | 26 | 72 | 0.0 | 1.6 | 0.00 | 0.00 | 0.00 | 30 | 1015.1 |
| 20260504214609 | 26 | 93 | 1.6 | 1.6 | 0.00 | 0.00 | 0.00 | 31 | 1015.1 |
| 20260504214105 | 26 | 105 | 3.2 | 6.4 | 0.00 | 0.00 | 0.00 | 31 | 1015.1 |
| 20260504213601 | 26 | 250 | 4.8 | 11.3 | 0.00 | 0.00 | 0.00 | 29 | 1015.0 |
| 20260504213059 | 26 | 66 | 0.0 | 4.8 | 0.00 | 0.00 | 0.00 | 30 | 1015.1 |
| 20260504212554 | 25 | 61 | 1.6 | 3.2 | 0.00 | 0.00 | 0.00 | 29 | 1015.2 |
| 20260504212052 | 25 | 35 | 3.2 | 3.2 | 0.00 | 0.00 | 0.00 | 29 | 1015.1 |
| 20260504211549 | 25 | 203 | 3.2 | 9.7 | 0.00 | 0.00 | 0.00 | 29 | 1015.0 |
| 20260504211046 | 25 | 76 | 0.0 | 1.6 | 0.00 | 0.00 | 0.00 | 33 | 1015.1 |
| 20260504210542 | 26 | 66 | 0.0 | 3.2 | 0.00 | 0.00 | 0.00 | 31 | 1015.1 |
| 20260504210039 | 26 | 116 | 3.2 | 6.4 | 0.00 | 0.00 | 0.00 | 29 | 1015.1 |
| 20260504210002 | 26 | 187 | 0.0 | 0.0 | 0.00 | 0.00 | 0.00 | 23 | 1012.1 |
| 20260504205537 | 26 | 111 | 1.6 | 3.2 | 0.00 | 0.00 | 0.00 | 26 | 1015.0 |
| 20260504205035 | 27 | 283 | 3.2 | 4.8 | 0.00 | 0.00 | 0.00 | 27 | 1015.1 |
| 20260504204533 | 26 | 104 | 0.0 | 1.6 | 0.00 | 0.00 | 0.00 | 29 | 1015.3 |
| 20260504204032 | 26 | 92 | 0.0 | 4.8 | 0.00 | 0.00 | 0.00 | 31 | 1015.3 |
| 20260504203529 | 26 | 81 | 0.0 | 4.8 | 0.00 | 0.00 | 0.00 | 29 | 1015.3 |
| 20260504203027 | 26 | 75 | 0.0 | 4.8 | 0.00 | 0.00 | 0.00 | 30 | 1015.5 |
| 20260504203002 | 25 | 179 | 0.0 | 0.0 | 0.00 | 0.00 | 0.00 | 27 | 1012.2 |
| 20260504202522 | 25 | 312 | 3.2 | 4.8 | 0.00 | 0.00 | 0.00 | 31 | 1015.4 |
| 20260504202019 | 25 | 217 | 6.4 | 6.4 | 0.00 | 0.00 | 0.00 | 31 | 1015.4 |
| 20260504201516 | 26 | 93 | 3.2 | 4.8 | 0.00 | 0.00 | 0.00 | 31 | 1015.5 |
| 20260504201014 | 26 | 115 | 1.6 | 1.6 | 0.00 | 0.00 | 0.00 | 29 | 1015.5 |
| 20260504200510 | 26 | 92 | 1.6 | 4.8 | 0.00 | 0.00 | 0.00 | 30 | 1015.8 |
| 20260504200007 | 26 | 59 | 1.6 | 6.4 | 0.00 | 0.00 | 0.00 | 29 | 1015.6 |
| 20260504200002 | 26 | 192 | 0.0 | 0.0 | 0.00 | 0.00 | 0.00 | 25 | 1012.5 |
| 20260504195503 | 26 | 105 | 0.0 | 9.7 | 0.00 | 0.00 | 0.00 | 30 | 1015.5 |
| 20260504195000 | 27 | 243 | 4.8 | 6.4 | 0.00 | 0.00 | 0.00 | 29 | 1015.7 |
| 20260504194455 | 27 | 61 | 0.0 | 3.2 | 0.00 | 0.00 | 0.00 | 30 | 1015.8 |
| 20260504193951 | 27 | 73 | 1.6 | 3.2 | 0.00 | 0.00 | 0.00 | 29 | 1015.9 |
| 20260504193449 | 26 | 93 | 1.6 | 3.2 | 0.00 | 0.00 | 0.00 | 30 | 1016.0 |
| 20260504193002 | 25 | 153 | 0.0 | 0.0 | 0.00 | 0.00 | 0.00 | 27 | 1012.9 |
| 20260504192948 | 26 | 113 | 0.0 | 4.8 | 0.00 | 0.00 | 0.00 | 29 | 1016.1 |
| 20260504192444 | 26 | 101 | 1.6 | 3.2 | 0.00 | 0.00 | 0.00 | 30 | 1016.1 |
| 20260504191943 | 26 | 132 | 3.2 | 4.8 | 0.00 | 0.00 | 0.00 | 31 | 1016.1 |
| 20260504191441 | 26 | 58 | 1.6 | 1.6 | 0.00 | 0.00 | 0.00 | 33 | 1016.2 |
| 20260504190935 | 25 | 169 | 3.2 | 4.8 | 0.00 | 0.00 | 0.00 | 31 | 1016.1 |
| 20260504190431 | 25 | 113 | 1.6 | 3.2 | 0.00 | 0.00 | 0.00 | 33 | 1016.4 |
| 20260504190003 | 25 | 317 | 0.0 | 0.0 | 0.00 | 0.00 | 0.00 | 28 | 1013.2 |
| 20260504185928 | 25 | 56 | 3.2 | 6.4 | 0.00 | 0.00 | 0.00 | 32 | 1016.2 |
| 20260504185426 | 25 | 300 | 3.2 | 6.4 | 0.00 | 0.00 | 0.00 | 31 | 1016.4 |
| 20260504184921 | 25 | 114 | 3.2 | 4.8 | 0.00 | 0.00 | 0.00 | 33 | 1016.6 |
| 20260504184417 | 25 | 98 | 0.0 | 3.2 | 0.00 | 0.00 | 0.00 | 32 | 1016.7 |
| 20260504183913 | 26 | 70 | 1.6 | 3.2 | 0.00 | 0.00 | 0.00 | 29 | 1016.6 |
| 20260504183411 | 26 | 61 | 1.6 | 4.8 | 0.00 | 0.00 | 0.00 | 30 | 1016.7 |
| 20260504183002 | 25 | 187 | 0.0 | 0.0 | 0.00 | 0.00 | 0.00 | 26 | 1013.4 |
| 20260504182909 | 26 | 71 | 0.0 | 3.2 | 0.00 | 0.00 | 0.00 | 31 | 1016.5 |
| 20260504182405 | 25 | 178 | 3.2 | 4.8 | 0.00 | 0.00 | 0.00 | 32 | 1016.6 |
| 20260504181902 | 26 | 322 | 3.2 | 4.8 | 0.00 | 0.00 | 0.00 | 28 | 1016.8 |
| 20260504181359 | 26 | 264 | 4.8 | 6.4 | 0.00 | 0.00 | 0.00 | 32 | 1016.7 |
| 20260504180858 | 25 | 148 | 1.6 | 3.2 | 0.00 | 0.00 | 0.00 | 32 | 1016.8 |
| 20260504180356 | 25 | 105 | 1.6 | 3.2 | 0.00 | 0.00 | 0.00 | 30 | 1016.8 |
| 20260504180002 | 25 | 207 | 0.0 | 0.0 | 0.00 | 0.00 | 0.00 | 25 | 1013.7 |
| 20260504175854 | 25 | 273 | 1.6 | 3.2 | 0.00 | 0.00 | 0.00 | 28 | 1016.7 |
| 20260504175350 | 25 | 57 | 1.6 | 3.2 | 0.00 | 0.00 | 0.00 | 30 | 1017.0 |
| 20260504174849 | 25 | 97 | 1.6 | 3.2 | 0.00 | 0.00 | 0.00 | 32 | 1017.0 |
| 20260504174346 | 25 | 163 | 4.8 | 9.7 | 0.00 | 0.00 | 0.00 | 29 | 1017.0 |
| 20260504173843 | 25 | 57 | 1.6 | 3.2 | 0.00 | 0.00 | 0.00 | 32 | 1017.0 |
| 20260504173340 | 24 | 63 | 1.6 | 6.4 | 0.00 | 0.00 | 0.00 | 32 | 1017.1 |
| 20260504173003 | 23 | 277 | 0.0 | 0.0 | 0.00 | 0.00 | 0.00 | 28 | 1013.9 |
| 20260504172837 | 25 | 325 | 3.2 | 9.7 | 0.00 | 0.00 | 0.00 | 30 | 1017.1 |
| 20260504172333 | 25 | 57 | 1.6 | 1.6 | 0.00 | 0.00 | 0.00 | 35 | 1017.2 |
| 20260504171829 | 24 | 53 | 3.2 | 3.2 | 0.00 | 0.00 | 0.00 | 32 | 1017.5 |
| 20260504171326 | 23 | 56 | 3.2 | 4.8 | 0.00 | 0.00 | 0.00 | 32 | 1017.4 |
| 20260504170824 | 23 | 63 | 1.6 | 6.4 | 0.00 | 0.00 | 0.00 | 31 | 1017.6 |
| 20260504170320 | 23 | 30 | 3.2 | 6.4 | 0.00 | 0.00 | 0.00 | 30 | 1017.4 |
| 20260504160239 | 22 | 97 | 3.2 | 3.2 | 0.00 | 0.00 | 0.00 | 34 | 1018.5 |
| 20260504150704 | 21 | 149 | 3.2 | 3.2 | 0.00 | 0.00 | 0.00 | 40 | 1018.6 |
| 20260504150201 | 21 | 128 | 3.2 | 3.2 | 0.00 | 0.00 | 0.00 | 39 | 1018.8 |
| 20260504141130 | 20 | 276 | 3.2 | 9.7 | 0.00 | 0.00 | 0.00 | 40 | 1018.7 |
| 20260504140627 | 19 | 277 | 3.2 | 3.2 | 0.00 | 0.00 | 0.00 | 43 | 1018.6 |
| 20260504140122 | 19 | 66 | 1.6 | 3.2 | 0.00 | 0.00 | 0.00 | 45 | 1018.7 |
| 20260504130550 | 15 | 68 | 0.0 | 0.0 | 0.00 | 0.00 | 0.00 | 74 | 1019.0 |
| 20260504110438 | 7 | 54 | 0.0 | 0.0 | 0.00 | 0.00 | 0.00 | 89 | 1018.2 |